Memphis, TN

2:00 PM CST on November 21, 2017 (GMT -0600)
Memphis International

Weather History for KMEM - November, 2012

Change the Weather History Date:

Tuesday, November 6, 2012

  Actual Average Record
Temperature  
Mean Temperature 49 °F 57 °F  
Max Temperature 55 °F 67 °F 80 °F (1914)
Min Temperature 43 °F 47 °F 25 °F (1967)
Degree Days  
Heating Degree Days 16 9  
Month to date heating degree days 55 49  
Since 1 July heating degree days 217 180  
Cooling Degree Days 0 1  
Month to date cooling degree days 3 6  
Year to date cooling degree days 2612 2249  
Moisture  
Dew Point 43 °F    
Average Humidity 80    
Maximum Humidity 93    
Minimum Humidity 66    
Precipitation  
Precipitation T in 0.16 in 2.34 in (1972)
Month to date precipitation 0.53 0.93  
Year to date precipitation 30.80 43.38  
Snow  
Snow 0.00 in 0.00 in 0.00 in (2002)
Month to date snowfall 0.0 0.0  
Since 1 July snowfall 0.0 0.0  
Since 1 September snowfall 0.0 0.0  
Snow Depth 0.00 in    
Sea Level Pressure  
Sea Level Pressure 30.03 in    
Wind  
Wind Speed 4 mph (NNW)    
Max Wind Speed 13 mph    
Max Gust Speed 20 mph    
Visibility 8 miles    
Events      
T = Trace of Precipitation, MM = Missing Value Source: NWS Daily Summary

Daily Weather History Graph

Daily Weather History Graph

Search for Another Location

Airport or City:

Trip Planner

Search our weather history database for the weather conditions in past years. The results will help you decide how hot, cold, wet, or windy it might be!

Date:

Astronomy

Nov. 06, 2012 Rise Set
Actual Time 6:26 AM CST 5:00 PM CST
Civil Twilight 5:59 AM CST 5:26 PM CST
Nautical Twilight 5:29 AM CST 5:57 PM CST
Astronomical Twilight 4:59 AM CST 6:26 PM CST
Moon 11:36 PM CST (11/6) 12:20 PM CST (11/6)
Length of Visible Light 11h 27m
Length of Day
10h 34m
Waning Gibbous, 53% of the Moon is Illuminated
Nov 6
Waning Gibbous
Nov 6
Last Quarter
Nov 13
New
Nov 20
First Quarter
Nov 28
Full

Hourly Weather History & Observations

Time (CST) Temp. Windchill Dew Point Humidity Pressure Visibility Wind Dir Wind Speed Gust Speed Precip Events Conditions
12:54 AM 48.0 °F - 43.0 °F 83% 30.01 in 10.0 mi East 6.9 mph - N/A   Overcast
1:51 AM 48.2 °F - 42.8 °F 82% 30.02 in 10.0 mi East 3.5 mph - N/A   Mostly Cloudy
1:54 AM 48.0 °F - 43.0 °F 83% 30.02 in 10.0 mi East 4.6 mph - N/A   Mostly Cloudy
2:44 AM 48.2 °F - 42.8 °F 82% 30.02 in 10.0 mi North 4.6 mph - N/A   Overcast
2:54 AM 48.0 °F - 43.0 °F 83% 30.02 in 10.0 mi North 4.6 mph - N/A   Overcast
3:19 AM 48.2 °F - 42.8 °F 82% 30.02 in 10.0 mi NNE 4.6 mph - N/A   Overcast
3:54 AM 48.2 °F - 42.8 °F 82% 30.01 in 9.0 mi Variable 3.5 mph - N/A   Overcast
4:54 AM 46.9 °F - 44.1 °F 90% 30.02 in 6.0 mi NNW 4.6 mph - N/A   Overcast
5:06 AM 46.4 °F 42.9 °F 44.6 °F 93% 30.03 in 6.0 mi NNW 6.9 mph - N/A   Overcast
5:42 AM 46.4 °F 44.3 °F 44.6 °F 93% 30.04 in 7.0 mi North 4.6 mph - N/A   Overcast
5:54 AM 46.9 °F - 43.0 °F 86% 30.04 in 7.0 mi North 6.9 mph - N/A   Overcast
6:54 AM 46.9 °F - 43.0 °F 86% 30.06 in 6.0 mi NNE 6.9 mph - N/A   Overcast
7:27 AM 48.2 °F - 42.8 °F 82% 30.07 in 6.0 mi NNE 5.8 mph - N/A   Haze
7:54 AM 48.0 °F - 43.0 °F 83% 30.07 in 6.0 mi NE 5.8 mph - N/A   Haze
8:04 AM 48.2 °F - 42.8 °F 82% 30.07 in 6.0 mi NE 6.9 mph - N/A   Haze
8:34 AM 48.2 °F - 44.6 °F 87% 30.06 in 6.0 mi NE 4.6 mph - N/A   Haze
8:54 AM 48.9 °F - 44.1 °F 83% 30.06 in 6.0 mi ENE 3.5 mph - N/A   Haze
9:54 AM 50.0 °F - 44.1 °F 80% 30.08 in 7.0 mi WNW 3.5 mph - N/A   Overcast
10:11 AM 51.8 °F - 44.6 °F 76% 30.09 in 8.0 mi WNW 8.1 mph - N/A   Overcast
10:27 AM 51.8 °F - 44.6 °F 76% 30.09 in 9.0 mi West 6.9 mph - N/A   Overcast
10:54 AM 52.0 °F - 45.0 °F 77% 30.08 in 6.0 mi WNW 6.9 mph - N/A   Haze
11:54 AM 53.1 °F - 45.0 °F 74% 30.06 in 8.0 mi WNW 5.8 mph - N/A   Overcast
12:54 PM 53.1 °F - 44.1 °F 71% 30.03 in 8.0 mi West 6.9 mph - N/A   Overcast
1:54 PM 53.1 °F - 42.1 °F 66% 30.02 in 10.0 mi West 11.5 mph - N/A   Overcast
2:54 PM 52.0 °F - 42.1 °F 69% 30.01 in 10.0 mi WNW 9.2 mph - N/A   Overcast
3:54 PM 52.0 °F - 41.0 °F 66% 30.01 in 10.0 mi West 6.9 mph - N/A   Overcast
4:51 PM 50.0 °F - 42.8 °F 76% 30.00 in 10.0 mi West 5.8 mph - N/A   Mostly Cloudy
4:54 PM 50.0 °F - 42.1 °F 74% 30.00 in 10.0 mi West 5.8 mph - N/A   Mostly Cloudy
5:08 PM 50.0 °F - 42.8 °F 76% 29.99 in 10.0 mi SW 4.6 mph - N/A   Mostly Cloudy
5:54 PM 48.0 °F - 42.1 °F 80% 30.01 in 10.0 mi West 3.5 mph - N/A   Scattered Clouds
6:54 PM 46.9 °F - 42.1 °F 83% 30.02 in 10.0 mi Calm Calm - N/A   Partly Cloudy
7:54 PM 45.0 °F - 42.1 °F 90% 30.03 in 10.0 mi Calm Calm - N/A   Partly Cloudy
8:54 PM 45.0 °F - 42.1 °F 90% 30.03 in 10.0 mi Calm Calm - N/A   Mostly Cloudy
9:54 PM 44.1 °F - 41.0 °F 89% 30.02 in 10.0 mi Calm Calm - N/A   Scattered Clouds
10:54 PM 45.0 °F - 42.1 °F 90% 30.01 in 10.0 mi Calm Calm - N/A   Mostly Cloudy
11:54 PM 46.9 °F - 43.0 °F 86% 30.02 in 10.0 mi Calm Calm - 0.00 in   Mostly Cloudy
11:59 PM 48.2 °F - 44.6 °F 87% 30.02 in 8.0 mi NE 4.6 mph - N/A   Mostly Cloudy